| time (UTC) | temp F | wind direction | speed MPH | gust MPH | rain 1hr in | rain 24hr in | rain mn in | humidity % | barometer mb |
| 20260506001802 | 69 | 147 | 2.0 | 4.0 | 0.00 | 0.00 | 0.00 | 73 | 1014.6 |
| 20260506000902 | 69 | 138 | 2.0 | 5.0 | 0.00 | 0.00 | 0.00 | 71 | 1014.5 |
| 20260506000023 | 70 | 129 | 3.0 | 5.0 | 0.00 | 0.00 | 0.00 | 70 | 1014.5 |
| 20260505235403 | 70 | 125 | 3.0 | 5.0 | 0.00 | 0.00 | 0.00 | 70 | 1014.5 |
| 20260505234502 | 70 | 136 | 3.0 | 8.0 | 0.00 | 0.00 | 0.00 | 69 | 1014.5 |
| 20260505233602 | 71 | 138 | 4.0 | 8.0 | 0.00 | 0.00 | 0.00 | 68 | 1014.4 |
| 20260505232723 | 71 | 134 | 3.0 | 7.0 | 0.00 | 0.00 | 0.00 | 67 | 1014.4 |
| 20260505231802 | 71 | 131 | 4.0 | 7.0 | 0.00 | 0.00 | 0.00 | 66 | 1014.4 |
| 20260505230944 | 72 | 129 | 4.0 | 8.0 | 0.00 | 0.00 | 0.00 | 66 | 1014.4 |
| 20260505230002 | 72 | 128 | 4.0 | 8.0 | 0.00 | 0.00 | 0.00 | 65 | 1014.4 |
| 20260505225402 | 72 | 131 | 4.0 | 8.0 | 0.00 | 0.00 | 0.00 | 65 | 1014.5 |
| 20260505224524 | 72 | 125 | 4.0 | 8.0 | 0.00 | 0.00 | 0.00 | 63 | 1014.5 |
| 20260505223602 | 73 | 128 | 5.0 | 8.0 | 0.00 | 0.00 | 0.00 | 63 | 1014.5 |
| 20260505222702 | 73 | 128 | 5.0 | 12.0 | 0.00 | 0.00 | 0.00 | 63 | 1014.5 |
| 20260505221802 | 73 | 127 | 4.0 | 12.0 | 0.00 | 0.00 | 0.00 | 63 | 1014.4 |
| 20260505220923 | 73 | 140 | 3.0 | 8.0 | 0.00 | 0.00 | 0.00 | 63 | 1014.4 |
| 20260505220002 | 74 | 128 | 4.0 | 11.0 | 0.00 | 0.00 | 0.00 | 62 | 1014.4 |
| 20260505215402 | 74 | 136 | 4.0 | 11.0 | 0.00 | 0.00 | 0.00 | 62 | 1014.5 |
| 20260505214502 | 75 | 151 | 3.0 | 7.0 | 0.00 | 0.00 | 0.00 | 61 | 1014.5 |
| 20260505213603 | 75 | 134 | 4.0 | 8.0 | 0.00 | 0.00 | 0.00 | 61 | 1014.4 |
| 20260505212723 | 76 | 161 | 4.0 | 8.0 | 0.00 | 0.00 | 0.00 | 58 | 1014.4 |
| 20260505211803 | 76 | 137 | 4.0 | 8.0 | 0.00 | 0.00 | 0.00 | 59 | 1014.5 |
| 20260505210924 | 75 | 128 | 5.0 | 12.0 | 0.00 | 0.00 | 0.00 | 59 | 1014.4 |
| 20260505210002 | 75 | 126 | 6.0 | 13.0 | 0.00 | 0.00 | 0.00 | 59 | 1014.4 |
| 20260505205402 | 76 | 123 | 5.0 | 13.0 | 0.00 | 0.00 | 0.00 | 59 | 1014.6 |
| 20260505204523 | 76 | 127 | 5.0 | 9.0 | 0.00 | 0.00 | 0.00 | 59 | 1014.6 |
| 20260505203623 | 76 | 132 | 4.0 | 11.0 | 0.00 | 0.00 | 0.00 | 58 | 1014.5 |
| 20260505202724 | 77 | 146 | 4.0 | 7.0 | 0.00 | 0.00 | 0.00 | 56 | 1014.5 |
| 20260505201824 | 76 | 135 | 5.0 | 10.0 | 0.00 | 0.00 | 0.00 | 58 | 1014.5 |
| 20260505200903 | 77 | 132 | 4.0 | 9.0 | 0.00 | 0.00 | 0.00 | 56 | 1014.9 |
| 20260505200002 | 77 | 124 | 4.0 | 9.0 | 0.00 | 0.00 | 0.00 | 57 | 1014.9 |
| 20260505195402 | 77 | 134 | 4.0 | 9.0 | 0.00 | 0.00 | 0.00 | 55 | 1014.7 |
| 20260505194502 | 78 | 162 | 4.0 | 7.0 | 0.00 | 0.00 | 0.00 | 55 | 1014.7 |
| 20260505193602 | 78 | 161 | 4.0 | 10.0 | 0.00 | 0.00 | 0.00 | 53 | 1015.0 |
| 20260505192702 | 77 | 154 | 4.0 | 12.0 | 0.00 | 0.00 | 0.00 | 55 | 1015.0 |
| 20260505191802 | 77 | 135 | 4.0 | 7.0 | 0.00 | 0.00 | 0.00 | 54 | 1015.2 |
| 20260505190902 | 78 | 146 | 4.0 | 7.0 | 0.00 | 0.00 | 0.00 | 55 | 1015.5 |
| 20260505190003 | 76 | 125 | 5.0 | 10.0 | 0.00 | 0.00 | 0.00 | 55 | 1015.5 |
| 20260505185424 | 77 | 122 | 5.0 | 9.0 | 0.00 | 0.00 | 0.00 | 55 | 1015.5 |
| 20260505184502 | 77 | 139 | 5.0 | 10.0 | 0.00 | 0.00 | 0.00 | 54 | 1015.5 |
| 20260505183602 | 77 | 145 | 4.0 | 10.0 | 0.00 | 0.00 | 0.00 | 55 | 1015.4 |
| 20260505182703 | 76 | 125 | 5.0 | 9.0 | 0.00 | 0.00 | 0.00 | 57 | 1015.4 |
| 20260505181803 | 76 | 125 | 5.0 | 9.0 | 0.00 | 0.00 | 0.00 | 56 | 1015.4 |
| 20260505180902 | 76 | 143 | 4.0 | 9.0 | 0.00 | 0.00 | 0.00 | 54 | 1015.6 |
| 20260505180003 | 78 | 157 | 4.0 | 8.0 | 0.00 | 0.00 | 0.00 | 54 | 1015.6 |
| 20260505175403 | 77 | 134 | 5.0 | 11.0 | 0.00 | 0.00 | 0.00 | 57 | 1015.7 |
| 20260505174503 | 77 | 148 | 3.0 | 6.0 | 0.00 | 0.00 | 0.00 | 55 | 1015.7 |
| 20260505173623 | 78 | 141 | 4.0 | 7.0 | 0.00 | 0.00 | 0.00 | 55 | 1015.9 |
| 20260505172702 | 77 | 145 | 4.0 | 7.0 | 0.00 | 0.00 | 0.00 | 55 | 1015.9 |
| 20260505171824 | 77 | 139 | 4.0 | 8.0 | 0.00 | 0.00 | 0.00 | 54 | 1015.9 |
| 20260505170902 | 77 | 147 | 4.0 | 7.0 | 0.00 | 0.00 | 0.00 | 56 | 1016.0 |
| 20260505170003 | 76 | 130 | 3.0 | 8.0 | 0.00 | 0.00 | 0.00 | 58 | 1016.0 |
| 20260505165403 | 77 | 144 | 3.0 | 7.0 | 0.00 | 0.00 | 0.00 | 57 | 1016.1 |
| 20260505164524 | 77 | 190 | 3.0 | 6.0 | 0.00 | 0.00 | 0.00 | 58 | 1016.1 |
| 20260505163624 | 76 | 149 | 3.0 | 7.0 | 0.00 | 0.00 | 0.00 | 61 | 1016.5 |
| 20260505162703 | 76 | 145 | 3.0 | 7.0 | 0.00 | 0.00 | 0.00 | 58 | 1016.5 |
| 20260505161845 | 75 | 130 | 4.0 | 8.0 | 0.00 | 0.00 | 0.00 | 60 | 1016.5 |
| 20260505160903 | 77 | 148 | 2.0 | 6.0 | 0.00 | 0.00 | 0.00 | 60 | 1016.6 |
| 20260505152703 | 76 | 193 | 3.0 | 9.0 | 0.00 | 0.00 | 0.00 | 58 | 1016.8 |
| 20260505151803 | 75 | 183 | 3.0 | 9.0 | 0.00 | 0.00 | 0.00 | 58 | 1016.7 |
| 20260505150903 | 76 | 202 | 3.0 | 9.0 | 0.00 | 0.00 | 0.00 | 59 | 1016.6 |
| 20260505124503 | 65 | 220 | 1.0 | 5.0 | 0.00 | 0.00 | 0.00 | 84 | 1016.5 |
| 20260505123603 | 63 | 209 | 1.0 | 4.0 | 0.00 | 0.00 | 0.00 | 89 | 1016.5 |
| 20260505122724 | 61 | 214 | 2.0 | 4.0 | 0.00 | 0.00 | 0.00 | 93 | 1016.5 |
| 20260505121803 | 59 | 222 | 2.0 | 4.0 | 0.00 | 0.00 | 0.00 | 97 | 1016.5 |
| 20260505120903 | 58 | 207 | 1.0 | 5.0 | 0.00 | 0.00 | 0.00 | 98 | 1016.2 |
| 20260505120003 | 56 | 225 | 0.0 | 4.0 | 0.00 | 0.00 | 0.00 | 98 | 1016.2 |
| 20260505115403 | 55 | 225 | 0.0 | 4.0 | 0.00 | 0.00 | 0.00 | 98 | 1016.1 |
| 20260505114503 | 54 | 0 | 0.0 | 0.0 | 0.00 | 0.00 | 0.00 | 97 | 1016.1 |
| 20260505113603 | 53 | 0 | 0.0 | 0.0 | 0.00 | 0.00 | 0.00 | 97 | 1016.0 |
| 20260505112703 | 52 | 0 | 0.0 | 0.0 | 0.00 | 0.00 | 0.00 | 97 | 1016.0 |
| 20260505111803 | 52 | 0 | 0.0 | 0.0 | 0.00 | 0.00 | 0.00 | 96 | 1015.8 |
| 20260505110903 | 51 | 0 | 0.0 | 0.0 | 0.00 | 0.00 | 0.00 | 96 | 1015.5 |
| 20260505101824 | 51 | 0 | 0.0 | 0.0 | 0.00 | 0.00 | 0.00 | 96 | 1015.2 |
| 20260505100903 | 51 | 0 | 0.0 | 0.0 | 0.00 | 0.00 | 0.00 | 95 | 1015.1 |
| 20260505100003 | 51 | 0 | 0.0 | 0.0 | 0.00 | 0.00 | 0.00 | 95 | 1015.1 |
| 20260505095403 | 51 | 0 | 0.0 | 0.0 | 0.00 | 0.00 | 0.00 | 95 | 1014.9 |
| 20260505094503 | 52 | 0 | 0.0 | 0.0 | 0.00 | 0.00 | 0.00 | 95 | 1014.9 |
| 20260505093624 | 52 | 0 | 0.0 | 0.0 | 0.00 | 0.00 | 0.00 | 95 | 1014.9 |
| 20260505092703 | 52 | 0 | 0.0 | 0.0 | 0.00 | 0.00 | 0.00 | 95 | 1014.9 |
| 20260505091803 | 52 | 0 | 0.0 | 0.0 | 0.00 | 0.00 | 0.00 | 95 | 1014.9 |
| 20260505090903 | 52 | 0 | 0.0 | 0.0 | 0.00 | 0.00 | 0.00 | 95 | 1014.7 |
| 20260505090003 | 52 | 0 | 0.0 | 0.0 | 0.00 | 0.00 | 0.00 | 95 | 1014.7 |
| 20260505085403 | 52 | 0 | 0.0 | 0.0 | 0.00 | 0.00 | 0.00 | 95 | 1014.5 |
| 20260505084503 | 52 | 0 | 0.0 | 0.0 | 0.00 | 0.00 | 0.00 | 94 | 1014.5 |
| 20260505083603 | 52 | 0 | 0.0 | 0.0 | 0.00 | 0.00 | 0.00 | 94 | 1014.5 |
| 20260505082703 | 52 | 0 | 0.0 | 0.0 | 0.00 | 0.00 | 0.00 | 94 | 1014.5 |
| 20260505081803 | 52 | 0 | 0.0 | 0.0 | 0.00 | 0.00 | 0.00 | 94 | 1014.4 |
| 20260505080903 | 52 | 0 | 0.0 | 0.0 | 0.00 | 0.00 | 0.00 | 93 | 1014.5 |
| 20260505080003 | 53 | 0 | 0.0 | 0.0 | 0.00 | 0.00 | 0.00 | 93 | 1014.5 |
| 20260505075403 | 53 | 0 | 0.0 | 0.0 | 0.00 | 0.00 | 0.00 | 93 | 1014.5 |
| 20260505074524 | 53 | 0 | 0.0 | 0.0 | 0.00 | 0.00 | 0.00 | 93 | 1014.5 |
| 20260505073603 | 53 | 0 | 0.0 | 0.0 | 0.00 | 0.00 | 0.00 | 93 | 1014.5 |
| 20260505072703 | 53 | 0 | 0.0 | 0.0 | 0.00 | 0.00 | 0.00 | 92 | 1014.5 |
| 20260505071824 | 53 | 0 | 0.0 | 0.0 | 0.00 | 0.00 | 0.00 | 92 | 1014.5 |
| 20260505070903 | 54 | 0 | 0.0 | 0.0 | 0.00 | 0.00 | 0.00 | 91 | 1014.6 |
| 20260505070003 | 54 | 0 | 0.0 | 0.0 | 0.00 | 0.00 | 0.00 | 91 | 1014.6 |
| 20260505065403 | 54 | 0 | 0.0 | 0.0 | 0.00 | 0.00 | 0.00 | 91 | 1014.7 |
| 20260505064503 | 54 | 0 | 0.0 | 0.0 | 0.00 | 0.00 | 0.00 | 90 | 1014.7 |
| 20260505063624 | 54 | 0 | 0.0 | 0.0 | 0.00 | 0.00 | 0.00 | 90 | 1014.8 |
| 20260505062703 | 54 | 0 | 0.0 | 0.0 | 0.00 | 0.00 | 0.00 | 89 | 1014.8 |
| 20260505061824 | 54 | 0 | 0.0 | 0.0 | 0.00 | 0.00 | 0.00 | 89 | 1014.9 |
| 20260505060903 | 55 | 0 | 0.0 | 0.0 | 0.00 | 0.00 | 0.00 | 89 | 1015.1 |
| 20260505060003 | 55 | 0 | 0.0 | 0.0 | 0.00 | 0.00 | 0.00 | 88 | 1015.1 |
| 20260505055403 | 55 | 0 | 0.0 | 0.0 | 0.00 | 0.00 | 0.00 | 88 | 1015.2 |
| 20260505054503 | 55 | 0 | 0.0 | 0.0 | 0.00 | 0.00 | 0.00 | 87 | 1015.2 |
| 20260505053603 | 55 | 0 | 0.0 | 0.0 | 0.00 | 0.00 | 0.00 | 87 | 1015.4 |
| 20260505052703 | 56 | 231 | 0.0 | 2.0 | 0.00 | 0.00 | 0.00 | 87 | 1015.4 |
| 20260505051803 | 56 | 231 | 0.0 | 2.0 | 0.00 | 0.00 | 0.00 | 87 | 1015.5 |
| 20260505050903 | 56 | 231 | 0.0 | 1.0 | 0.00 | 0.00 | 0.00 | 86 | 1015.6 |
| 20260505040903 | 57 | 0 | 0.0 | 0.0 | 0.00 | 0.00 | 0.00 | 83 | 1015.5 |
| 20260505040004 | 57 | 0 | 0.0 | 0.0 | 0.00 | 0.00 | 0.00 | 82 | 1015.5 |
| 20260505035403 | 58 | 0 | 0.0 | 0.0 | 0.00 | 0.00 | 0.00 | 82 | 1015.5 |
| 20260505034503 | 58 | 0 | 0.0 | 0.0 | 0.00 | 0.00 | 0.00 | 82 | 1015.5 |
| 20260505033601 | 58 | 0 | 0.0 | 0.0 | 0.00 | 0.00 | 0.00 | 81 | 1015.5 |
| 20260505032701 | 59 | 231 | 0.0 | 1.0 | 0.00 | 0.00 | 0.00 | 81 | 1015.5 |
| 20260505031801 | 59 | 231 | 0.0 | 1.0 | 0.00 | 0.00 | 0.00 | 80 | 1015.5 |
| 20260505030901 | 60 | 231 | 0.0 | 2.0 | 0.00 | 0.00 | 0.00 | 80 | 1015.5 |
| 20260505030001 | 60 | 0 | 0.0 | 0.0 | 0.00 | 0.00 | 0.00 | 77 | 1015.5 |
| 20260505025401 | 60 | 0 | 0.0 | 0.0 | 0.00 | 0.00 | 0.00 | 77 | 1015.6 |
| 20260505024501 | 61 | 231 | 0.0 | 1.0 | 0.00 | 0.00 | 0.00 | 77 | 1015.6 |
| 20260505023601 | 61 | 231 | 0.0 | 1.0 | 0.00 | 0.00 | 0.00 | 75 | 1015.5 |
| 20260505022701 | 61 | 231 | 0.0 | 1.0 | 0.00 | 0.00 | 0.00 | 75 | 1015.5 |
| 20260505021823 | 62 | 0 | 0.0 | 0.0 | 0.00 | 0.00 | 0.00 | 74 | 1015.5 |
| 20260505020901 | 62 | 0 | 0.0 | 1.0 | 0.00 | 0.00 | 0.00 | 74 | 1015.5 |
| 20260505020001 | 63 | 231 | 0.0 | 4.0 | 0.00 | 0.00 | 0.00 | 72 | 1015.5 |
| 20260505015401 | 63 | 232 | 0.0 | 4.0 | 0.00 | 0.00 | 0.00 | 72 | 1015.4 |
| 20260505014522 | 63 | 218 | 0.0 | 2.0 | 0.00 | 0.00 | 0.00 | 71 | 1015.4 |
| 20260505013601 | 64 | 218 | 0.0 | 2.0 | 0.00 | 0.00 | 0.00 | 70 | 1015.3 |
| 20260505012701 | 64 | 218 | 1.0 | 3.0 | 0.00 | 0.00 | 0.00 | 70 | 1015.3 |
| 20260505011801 | 64 | 218 | 0.0 | 3.0 | 0.00 | 0.00 | 0.00 | 69 | 1015.0 |
| 20260505010902 | 64 | 0 | 0.0 | 0.0 | 0.00 | 0.00 | 0.00 | 68 | 1014.9 |
| 20260505010001 | 65 | 0 | 0.0 | 1.0 | 0.00 | 0.00 | 0.00 | 67 | 1014.9 |
| 20260505005401 | 65 | 214 | 0.0 | 2.0 | 0.00 | 0.00 | 0.00 | 66 | 1014.7 |
| 20260505004501 | 66 | 184 | 1.0 | 2.0 | 0.00 | 0.00 | 0.00 | 64 | 1014.7 |
| 20260505003601 | 66 | 155 | 1.0 | 2.0 | 0.00 | 0.00 | 0.00 | 63 | 1014.5 |
| 20260505002701 | 66 | 190 | 1.0 | 2.0 | 0.00 | 0.00 | 0.00 | 63 | 1014.5 |